Weather in Mikhaylovka

Russia / Rostov Oblast     46°42′14″N   40°59′59″E
temp.,
°C
wind,
m/s
gust,
m/s
humid.,
%
clouds,
%
prec.,
mm/h
press.,
hPa
HPBL,
m
28 february, sun
sun2800:00+2wnw3796100 0.2 1014174
03:00+2nw3496100 0.2 1015114
06:00+1nw2394100 0.1 101554
09:00+1n459599 0.1 1017274
12:00+2nw239193 0.0 1017360
15:00+4nw347697 0.1 1017703
18:00+3wnw248397 0.2 1018111
21:00+1wnw359798 0.3 1020213
1 march, mon
mon100:00+1wnw239598 0.0 102183
03:00+1wnw239387 0.0 1022108
06:000w239799 0.1 1023179
09:00+1wsw239099 0.3 1025288
12:00+2wnw238998 0.1 1026351
15:00+3wnw348395 0.6 1026499
18:00+2wnw228189 0.1 102663
21:000w228559 0.1 102823
2 march, tue
tue200:000w23860 0.0 102850
03:00−1w35880 0.0 1028112
06:00−1wsw37880 0.0 1027193
09:00+1wsw587934 0.0 1027493
12:00+4wsw8116385 0.0 10251207
15:00+4w9146092 0.0 10221249
18:00+2w81472100 0.0 1020968
21:00+1wsw101783100 0.1 1019803
3 march, wed
wed300:00+1w101696100 1.2 1018825
03:00+2wnw61097100 3.5 1018593
06:00+1wnw5109096 0.1 1018459
09:00+1wnw7107554 0.1 1019923
12:00+4wnw79661 0.0 10191222
15:00+5wnw7106245 0.1 10201573
18:00+2nw6117090 0.7 1021591
21:000nw4107645 0.7 1024323
4 march, thu
thu400:00−1wnw37810 0.0 1025206
03:00−1wnw35810 0.0 1026142
06:00−1w35800 0.0 1027125
09:00+1w35650 0.0 1028372
12:00+5wsw45470 0.0 1027871
15:00+6wsw56480 0.0 10251058
18:00+3sw34630 0.0 102463
21:00+1ssw46700 0.0 1024104